Simultaneous Nadir Overpasses (SNOs) Predictions

Prediction of SNOs between GOES-16 and NPP Satellite Orbit:

Table of predicted SNOs for the next 14.0 days since TLE Epoch: 3/21/2025
Index Date Time (GOES-16) GOES-16 Lat,Lon NPP Lat,Lon Distance(km) Time Diff (sec)
1 03/22/2025 06:45:12 -0.07, -75.45 0.84, -79.42 452.53 80
2 03/23/2025 06:23:47 -0.07, -75.47 -0.23, -74.89 67.00 80
3 03/25/2025 18:26:53 0.06, -75.52 0.04, -75.63 12.32 80
4 03/28/2025 06:32:31 -0.05, -75.59 0.13, -76.34 85.53 80
5 03/29/2025 06:11:05 -0.05, -75.62 -0.90, -71.80 434.82 80
6 03/30/2025 18:32:58 0.05, -75.66 -0.28, -77.09 163.53 80
7 03/31/2025 18:16:52 0.05, -75.69 0.75, -72.55 357.34 80
8 04/02/2025 06:38:36 -0.05, -75.74 0.41, -77.80 235.09 80
9 04/03/2025 06:17:09 -0.05, -75.77 -0.63, -73.27 285.66 80
10 04/04/2025 18:39:02 0.04, -75.81 -0.59, -78.54 312.48 80
